K6PKL-2 Weather Reports


Display with metric or nautical units.
time (UTC)temp
F
wind
direction
speed
MPH
gust
MPH
rain 1hr
in
rain 24hr
in
rain mn
in
humidity
%
barometer
mb
20260508220144 80 333 5.0 6.0 0.00 0.00 0.00 52 1020.1
20260508215744 80 6 7.0 8.0 0.00 0.00 0.00 53 1020.1
20260508215344 80 300 5.0 9.0 0.00 0.00 0.00 53 1020.1
20260508214944 80 330 6.0 9.0 0.00 0.00 0.00 52 1020.2
20260508214543 80 353 8.0 11.0 0.00 0.00 0.00 52 1020.2
20260508214143 79 319 5.0 10.0 0.00 0.00 0.00 54 1020.3
20260508213743 79 38 3.0 10.0 0.00 0.00 0.00 54 1020.3
20260508213343 79 351 3.0 8.0 0.00 0.00 0.00 54 1020.4
20260508212943 79 357 4.0 8.0 0.00 0.00 0.00 54 1020.4
20260508212143 78 285 1.0 7.0 0.00 0.00 0.00 56 1020.5
20260508211742 78 315 3.0 10.0 0.00 0.00 0.00 57 1020.5
20260508211342 78 4 7.0 10.0 0.00 0.00 0.00 57 1020.6
20260508210942 78 357 6.0 8.0 0.00 0.00 0.00 58 1020.6
20260508210542 78 328 5.0 6.0 0.00 0.00 0.00 58 1020.7
20260508210241 77 344 4.0 6.0 0.00 0.00 0.00 58 1020.7
20260508210142 77 344 4.0 6.0 0.00 0.00 0.00 58 1020.7
20260508205742 77 342 3.0 8.0 0.00 0.00 0.00 58 1020.7
20260508205342 77 312 6.0 8.0 0.00 0.00 0.00 58 1020.9
20260508204941 76 4 7.0 8.0 0.00 0.00 0.00 58 1020.8
20260508204541 76 308 5.0 9.0 0.00 0.00 0.00 59 1021.0
20260508204141 76 0 4.0 6.0 0.00 0.00 0.00 59 1021.0
20260508203741 76 278 3.0 7.0 0.00 0.00 0.00 59 1021.1
20260508203341 76 252 2.0 7.0 0.00 0.00 0.00 59 1021.1
20260508202941 75 335 5.0 10.0 0.00 0.00 0.00 59 1021.1
20260508202541 75 333 5.0 9.0 0.00 0.00 0.00 59 1021.1
20260508202140 75 312 6.0 8.0 0.00 0.00 0.00 59 1021.3
20260508201740 75 232 5.0 7.0 0.00 0.00 0.00 61 1021.2
20260508200940 74 340 8.0 9.0 0.00 0.00 0.00 59 1021.2
20260508200540 74 281 0.0 7.0 0.00 0.00 0.00 60 1021.0
20260508200140 74 328 2.0 9.0 0.00 0.00 0.00 59 1021.2
20260508195740 74 324 7.0 7.0 0.00 0.00 0.00 60 1021.3
20260508195339 73 321 7.0 7.0 0.00 0.00 0.00 61 1021.3
20260508194939 73 2 5.0 6.0 0.00 0.00 0.00 61 1021.4
20260508194539 73 355 6.0 8.0 0.00 0.00 0.00 61 1021.5
20260508193739 72 256 0.0 4.0 0.00 0.00 0.00 61 1021.5
20260508193339 72 81 0.0 6.0 0.00 0.00 0.00 62 1021.5
20260508192939 72 355 5.0 8.0 0.00 0.00 0.00 62 1021.5
20260508192139 71 353 3.0 8.0 0.00 0.00 0.00 62 1021.7
20260508191738 71 343 4.0 6.0 0.00 0.00 0.00 62 1021.8
20260508191338 71 294 0.0 0.0 0.00 0.00 0.00 62 1021.7
20260508190938 70 236 0.0 4.0 0.00 0.00 0.00 62 1021.7
20260508190538 70 302 0.0 6.0 0.00 0.00 0.00 62 1021.7
20260508185737 70 342 0.0 4.0 0.00 0.00 0.00 63 1021.9
20260508185337 69 254 0.0 1.0 0.00 0.00 0.00 63 1021.8
20260508184537 69 328 0.0 7.0 0.00 0.00 0.00 64 1022.1
20260508184137 69 319 0.0 0.0 0.00 0.00 0.00 65 1022.0
20260508183737 68 319 0.0 0.0 0.00 0.00 0.00 65 1022.0
20260508183337 68 225 0.0 4.0 0.00 0.00 0.00 64 1022.0
20260508182536 68 315 0.0 2.0 0.00 0.00 0.00 66 1022.2
20260508182136 67 346 2.0 2.0 0.00 0.00 0.00 66 1022.2
20260508181736 67 299 0.0 2.0 0.00 0.00 0.00 66 1022.3
20260508181336 67 331 0.0 7.0 0.00 0.00 0.00 67 1022.2
20260508180936 67 324 0.0 4.0 0.00 0.00 0.00 67 1022.3
20260508180536 66 18 0.0 0.0 0.00 0.00 0.00 68 1022.2
20260508175735 66 330 0.0 8.0 0.00 0.00 0.00 69 1022.3
20260508175335 66 4 0.0 4.0 0.00 0.00 0.00 69 1022.2
20260508174935 65 255 0.0 1.0 0.00 0.00 0.00 69 1022.3
20260508174535 65 310 0.0 0.0 0.00 0.00 0.00 69 1022.3
20260508174135 65 348 0.0 0.0 0.00 0.00 0.00 70 1022.3
20260508173735 65 339 0.0 0.0 0.00 0.00 0.00 70 1022.4
20260508173335 65 11 0.0 0.0 0.00 0.00 0.00 71 1022.3
20260508172934 64 220 0.0 4.0 0.00 0.00 0.00 71 1022.4
20260508172534 64 279 0.0 0.0 0.00 0.00 0.00 72 1022.4
20260508172134 64 346 0.0 0.0 0.00 0.00 0.00 73 1022.4
20260508171734 63 339 0.0 0.0 0.00 0.00 0.00 72 1022.4
20260508171334 63 249 0.0 0.0 0.00 0.00 0.00 72 1022.4
20260508170934 63 13 0.0 0.0 0.00 0.00 0.00 73 1022.4
20260508170534 63 310 0.0 9.0 0.00 0.00 0.00 73 1022.5
20260508170133 63 231 0.0 3.0 0.00 0.00 0.00 73 1022.5
20260508165733 62 357 0.0 0.0 0.00 0.00 0.00 73 1022.4
20260508165334 62 294 0.0 0.0 0.00 0.00 0.00 74 1022.4
20260508164933 62 236 0.0 0.0 0.00 0.00 0.00 75 1022.5
20260508164533 62 261 0.0 0.0 0.00 0.00 0.00 75 1022.4
20260508164133 62 315 0.0 0.0 0.00 0.00 0.00 75 1022.5
20260508163733 62 306 0.0 0.0 0.00 0.00 0.00 75 1022.5
20260508163332 61 236 0.0 4.0 0.00 0.00 0.00 75 1022.4
20260508162933 61 303 0.0 0.0 0.00 0.00 0.00 75 1022.5
20260508162132 61 315 0.0 0.0 0.00 0.00 0.00 77 1022.4
20260508161732 60 310 0.0 5.0 0.00 0.00 0.00 77 1022.4
20260508161332 60 319 0.0 0.0 0.00 0.00 0.00 77 1022.4
20260508160932 60 245 0.0 3.0 0.00 0.00 0.00 77 1022.5
20260508160531 60 261 0.0 0.0 0.00 0.00 0.00 78 1022.4
20260508160131 60 283 0.0 6.0 0.00 0.00 0.00 78 1022.5
20260508155730 59 256 0.0 7.0 0.00 0.00 0.00 79 1022.4
20260508155331 59 319 0.0 0.0 0.00 0.00 0.00 79 1022.4
20260508154931 59 353 0.0 4.0 0.00 0.00 0.00 80 1022.5
20260508154531 59 308 0.0 2.0 0.00 0.00 0.00 80 1022.5
20260508154131 59 306 1.0 3.0 0.00 0.00 0.00 80 1022.5
20260508153730 58 301 0.0 1.0 0.00 0.00 0.00 80 1022.5
20260508153330 58 230 1.0 4.0 0.00 0.00 0.00 80 1022.4
20260508152930 58 346 5.0 9.0 0.00 0.00 0.00 80 1022.5
20260508152530 58 297 0.0 7.0 0.00 0.00 0.00 81 1022.6
20260508152130 58 297 0.0 6.0 0.00 0.00 0.00 81 1022.4
20260508151730 58 346 4.0 9.0 0.00 0.00 0.00 81 1022.5
20260508151330 57 305 0.0 6.0 0.00 0.00 0.00 81 1022.4
20260508150929 57 0 0.0 7.0 0.00 0.00 0.00 81 1022.3
20260508150529 57 315 0.0 0.0 0.00 0.00 0.00 81 1022.3
20260508150129 57 240 0.0 6.0 0.00 0.00 0.00 82 1022.3
20260508145729 57 315 0.0 7.0 0.00 0.00 0.00 82 1022.3
20260508145329 56 348 7.0 7.0 0.00 0.00 0.00 82 1022.3
20260508144929 56 310 2.0 6.0 0.00 0.00 0.00 82 1022.4
20260508144128 56 218 0.0 6.0 0.00 0.00 0.00 82 1022.3
20260508143728 56 312 0.0 0.0 0.00 0.00 0.00 82 1022.3
20260508143328 56 326 5.0 6.0 0.00 0.00 0.00 82 1022.2
20260508142928 56 263 0.0 4.0 0.00 0.00 0.00 82 1022.2
20260508142528 56 308 0.0 9.0 0.00 0.00 0.00 82 1022.1
20260508142128 56 355 0.0 4.0 0.00 0.00 0.00 83 1022.1
20260508141728 56 310 2.0 3.0 0.00 0.00 0.00 83 1022.1
20260508141327 56 344 0.0 4.0 0.00 0.00 0.00 82 1022.2
20260508140926 56 301 3.0 4.0 0.00 0.00 0.00 83 1022.0
20260508140527 56 321 0.0 4.0 0.00 0.00 0.00 82 1022.0
20260508140127 56 315 0.0 3.0 0.00 0.00 0.00 82 1022.0
20260508135726 55 333 0.0 3.0 0.00 0.00 0.00 82 1021.9
20260508135327 55 0 2.0 4.0 0.00 0.00 0.00 83 1021.8
20260508134526 55 35 1.0 1.0 0.00 0.00 0.00 82 1021.8
20260508134126 55 342 0.0 3.0 0.00 0.00 0.00 82 1021.7
20260508133725 55 315 2.0 3.0 0.00 0.00 0.00 83 1021.7
20260508133326 55 9 0.0 4.0 0.00 0.00 0.00 82 1021.7
20260508132925 55 333 2.0 4.0 0.00 0.00 0.00 82 1021.6
20260508132126 55 315 1.0 2.0 0.00 0.00 0.00 82 1021.7
20260508131725 55 315 3.0 4.0 0.00 0.00 0.00 82 1021.7
20260508131324 56 0 0.0 4.0 0.00 0.00 0.00 82 1021.6
20260508130925 56 306 1.0 5.0 0.00 0.00 0.00 83 1021.6
20260508130525 56 350 2.0 4.0 0.00 0.00 0.00 82 1021.6
20260508130125 56 351 2.0 3.0 0.00 0.00 0.00 82 1021.6
20260508125725 56 355 3.0 4.0 0.00 0.00 0.00 82 1021.6
20260508125324 56 353 2.0 3.0 0.00 0.00 0.00 82 1021.7
20260508124924 56 315 0.0 6.0 0.00 0.00 0.00 82 1021.6
20260508124123 56 270 5.0 5.0 0.00 0.00 0.00 82 1021.6
20260508123724 56 344 4.0 4.0 0.00 0.00 0.00 82 1021.6
20260508123323 56 324 1.0 4.0 0.00 0.00 0.00 82 1021.5
20260508122923 56 351 0.0 4.0 0.00 0.00 0.00 82 1021.6
20260508122523 56 328 3.0 3.0 0.00 0.00 0.00 82 1021.4
20260508122123 56 317 0.0 0.0 0.00 0.00 0.00 82 1021.4
20260508121723 56 315 0.0 0.0 0.00 0.00 0.00 82 1021.3
20260508121322 56 0 0.0 1.0 0.00 0.00 0.00 82 1021.3
20260508120922 57 355 2.0 4.0 0.00 0.00 0.00 82 1021.3
20260508120523 57 0 0.0 0.0 0.00 0.00 0.00 82 1021.3
20260508120123 57 0 0.0 0.0 0.00 0.00 0.00 82 1021.3
20260508115723 57 0 0.0 0.0 0.00 0.00 0.00 82 1021.3
20260508115322 57 335 0.0 0.0 0.00 0.00 0.00 82 1021.4
20260508114922 57 4 0.0 0.0 0.00 0.00 0.00 82 1021.4
20260508114522 57 317 0.0 0.0 0.00 0.00 0.00 82 1021.4
20260508114122 57 75 0.0 0.0 0.00 0.00 0.00 82 1021.5
20260508113722 57 315 0.0 2.0 0.00 0.00 0.00 82 1021.4
20260508113322 57 29 1.0 3.0 0.00 0.00 0.00 82 1021.4
20260508112922 57 342 0.0 0.0 0.00 0.00 0.00 82 1021.2
20260508112521 57 2 0.0 3.0 0.00 0.00 0.00 82 1021.2
20260508112121 57 315 2.0 3.0 0.00 0.00 0.00 82 1021.3
20260508111720 57 0 0.0 3.0 0.00 0.00 0.00 81 1021.2
20260508111320 57 315 2.0 3.0 0.00 0.00 0.00 82 1021.2
20260508110921 57 315 0.0 3.0 0.00 0.00 0.00 81 1021.1
20260508110521 57 0 0.0 0.0 0.00 0.00 0.00 81 1021.2
20260508105717 57 357 3.0 3.0 0.00 0.00 0.00 81 1021.2
20260508105317 57 33 2.0 3.0 0.00 0.00 0.00 81 1021.1
20260508104916 57 4 2.0 4.0 0.00 0.00 0.00 81 1021.1
20260508104639 57 0 2.0 3.0 0.00 0.00 0.00 81 1021.1
20260508104517 57 0 2.0 3.0 0.00 0.00 0.00 81 1021.1
20260508104117 57 346 3.0 3.0 0.00 0.00 0.00 81 1021.0
20260508103716 57 348 3.0 4.0 0.00 0.00 0.00 81 1021.1
20260508103316 57 339 3.0 3.0 0.00 0.00 0.00 81 1021.0
20260508102916 58 315 2.0 4.0 0.00 0.00 0.00 81 1021.1
20260508102516 58 346 2.0 4.0 0.00 0.00 0.00 81 1021.0
20260508101716 58 45 1.0 4.0 0.00 0.00 0.00 81 1020.9
20260508101316 58 31 2.0 4.0 0.00 0.00 0.00 81 1020.9
20260508100915 58 326 3.0 4.0 0.00 0.00 0.00 81 1020.9
20260508100516 58 47 2.0 4.0 0.00 0.00 0.00 81 1020.9
20260508100116 58 355 4.0 4.0 0.00 0.00 0.00 81 1020.9
20260508095715 58 355 2.0 4.0 0.00 0.00 0.00 80 1020.9
20260508095315 58 345 3.0 4.0 0.00 0.00 0.00 80 1020.9
20260508094915 58 40 0.0 0.0 0.00 0.00 0.00 80 1020.9
20260508094515 58 24 0.0 0.0 0.00 0.00 0.00 80 1021.0
20260508094115 58 20 0.0 3.0 0.00 0.00 0.00 80 1021.0
20260508093714 58 20 0.0 3.0 0.00 0.00 0.00 79 1020.9
20260508093314 58 355 3.0 3.0 0.00 0.00 0.00 80 1021.0
20260508092913 58 0 2.0 5.0 0.00 0.00 0.00 80 1021.0
20260508092514 58 351 3.0 5.0 0.00 0.00 0.00 80 1020.9
20260508092114 59 333 3.0 3.0 0.00 0.00 0.00 79 1021.0
20260508091714 59 0 0.0 4.0 0.00 0.00 0.00 79 1020.9
20260508091314 59 45 2.0 3.0 0.00 0.00 0.00 78 1020.9
20260508090914 59 0 1.0 3.0 0.00 0.00 0.00 78 1020.9
20260508090513 59 62 1.0 6.0 0.00 0.00 0.00 78 1020.9
20260508090113 59 312 4.0 6.0 0.00 0.00 0.00 79 1020.9
20260508085713 59 4 3.0 4.0 0.00 0.00 0.00 78 1020.7
20260508085313 59 335 2.0 5.0 0.00 0.00 0.00 77 1020.7
20260508084913 59 0 2.0 4.0 0.00 0.00 0.00 77 1020.8
20260508084513 59 0 2.0 4.0 0.00 0.00 0.00 77 1020.9
20260508083712 60 348 1.0 4.0 0.00 0.00 0.00 77 1020.9
20260508083312 60 63 0.0 0.0 0.00 0.00 0.00 77 1020.8
20260508082912 60 310 4.0 5.0 0.00 0.00 0.00 77 1020.9
20260508082512 60 319 2.0 4.0 0.00 0.00 0.00 76 1021.0
20260508082112 60 328 4.0 4.0 0.00 0.00 0.00 76 1021.0
20260508081712 60 317 2.0 4.0 0.00 0.00 0.00 75 1021.1
20260508081312 60 337 4.0 5.0 0.00 0.00 0.00 75 1021.0
20260508080912 61 326 2.0 4.0 0.00 0.00 0.00 75 1021.0
20260508080511 61 339 2.0 4.0 0.00 0.00 0.00 75 1021.1
20260508080111 61 2 2.0 4.0 0.00 0.00 0.00 74 1021.0
20260508075311 61 315 2.0 6.0 0.00 0.00 0.00 74 1021.0
20260508074911 61 2 2.0 5.0 0.00 0.00 0.00 74 1020.9
20260508074511 61 9 3.0 6.0 0.00 0.00 0.00 74 1020.8
20260508074110 62 240 2.0 4.0 0.00 0.00 0.00 73 1020.8
20260508073710 62 326 2.0 5.0 0.00 0.00 0.00 73 1020.9
20260508073309 62 0 1.0 6.0 0.00 0.00 0.00 73 1020.8
20260508072910 62 342 3.0 3.0 0.00 0.00 0.00 73 1020.7
20260508072510 62 315 2.0 4.0 0.00 0.00 0.00 72 1020.8
20260508072110 62 275 1.0 5.0 0.00 0.00 0.00 72 1020.7
20260508071710 62 315 2.0 4.0 0.00 0.00 0.00 72 1020.6
20260508071309 62 45 0.0 4.0 0.00 0.00 0.00 72 1020.7
20260508070909 63 321 2.0 4.0 0.00 0.00 0.00 71 1020.6
20260508070509 63 306 4.0 4.0 0.00 0.00 0.00 71 1020.5
20260508070109 63 319 1.0 7.0 0.00 0.00 0.00 70 1020.6
20260508065709 63 242 2.0 5.0 0.00 0.00 0.00 70 1020.4
20260508065309 63 283 3.0 5.0 0.00 0.00 0.00 70 1020.5
20260508064909 63 54 0.0 2.0 0.00 0.00 0.00 69 1020.4
20260508064508 64 344 1.0 7.0 0.00 0.00 0.00 70 1020.5
20260508064108 64 317 2.0 8.0 0.00 0.00 0.00 69 1020.5
20260508063708 64 260 0.0 5.0 0.00 0.00 0.00 69 1020.5
20260508063307 64 315 2.0 7.0 0.00 0.00 0.00 68 1020.5
20260508062908 65 342 3.0 6.0 0.00 0.00 0.00 68 1020.5
20260508062507 65 247 6.0 6.0 0.00 0.00 0.00 67 1020.4
20260508062108 65 265 4.0 4.0 0.00 0.00 0.00 68 1020.5
20260508061707 65 328 3.0 6.0 0.00 0.00 0.00 66 1020.3
20260508061306 65 319 6.0 6.0 0.00 0.00 0.00 66 1020.4
20260508060907 66 33 0.0 4.0 0.00 0.00 0.00 66 1020.4
20260508060507 66 0 2.0 5.0 0.00 0.00 0.00 66 1020.4
20260508060107 66 339 5.0 5.0 0.00 0.00 0.00 65 1020.4
20260508055707 66 326 4.0 4.0 0.00 0.00 0.00 65 1020.5
20260508055307 67 321 3.0 7.0 0.00 0.00 0.00 65 1020.5
20260508054906 67 342 7.0 7.0 0.00 0.00 0.00 64 1020.5
20260508054506 67 315 2.0 4.0 0.00 0.00 0.00 64 1020.5
20260508054106 67 244 4.0 4.0 0.00 0.00 0.00 64 1020.5
20260508053706 68 261 2.0 5.0 0.00 0.00 0.00 64 1020.5
20260508053306 68 306 2.0 6.0 0.00 0.00 0.00 63 1020.6
20260508052506 69 315 2.0 7.0 0.00 0.00 0.00 63 1020.5
20260508052106 69 280 1.0 5.0 0.00 0.00 0.00 63 1020.4
20260508051705 69 315 2.0 6.0 0.00 0.00 0.00 63 1020.5
20260508051304 69 325 6.0 6.0 0.00 0.00 0.00 63 1020.4
20260508050905 70 300 2.0 4.0 0.00 0.00 0.00 63 1020.5
20260508050505 70 315 3.0 4.0 0.00 0.00 0.00 63 1020.4
20260508050105 70 315 2.0 5.0 0.00 0.00 0.00 63 1020.5
20260508045705 71 325 4.0 6.0 0.00 0.00 0.00 63 1020.4
20260508045307 71 292 0.0 7.0 0.00 0.00 0.00 63 1020.5
20260508044904 71 122 2.0 3.0 0.00 0.00 0.00 63 1020.5
20260508044504 72 315 0.0 4.0 0.00 0.00 0.00 63 1020.5
20260508044104 72 326 3.0 3.0 0.00 0.00 0.00 62 1020.5
20260508043704 72 270 2.0 4.0 0.00 0.00 0.00 63 1020.4
20260508043304 72 315 0.0 2.0 0.00 0.00 0.00 63 1020.4
20260508042904 73 301 2.0 4.0 0.00 0.00 0.00 63 1020.3
20260508041703 74 0 0.0 4.0 0.00 0.00 0.00 62 1020.3
20260508041303 74 333 0.0 3.0 0.00 0.00 0.00 62 1020.2
20260508040903 74 315 2.0 6.0 0.00 0.00 0.00 62 1020.2
20260508040503 75 0 1.0 3.0 0.00 0.00 0.00 62 1020.2
20260508035703 75 292 3.0 3.0 0.00 0.00 0.00 60 1020.1
20260508035302 76 229 0.0 1.0 0.00 0.00 0.00 60 1020.0
20260508034902 76 245 1.0 1.0 0.00 0.00 0.00 59 1020.1
20260508034502 76 0 0.0 3.0 0.00 0.00 0.00 59 1019.9
20260508034102 77 290 0.0 4.0 0.00 0.00 0.00 58 1020.0
20260508033702 77 324 0.0 5.0 0.00 0.00 0.00 58 1019.9
20260508032901 78 297 0.0 4.0 0.00 0.00 0.00 57 1019.8
20260508032501 78 0 3.0 3.0 0.00 0.00 0.00 57 1019.8
20260508031701 79 346 0.0 4.0 0.00 0.00 0.00 55 1019.6
20260508031300 80 333 0.0 7.0 0.00 0.00 0.00 55 1019.7
20260508030901 80 348 7.0 7.0 0.00 0.00 0.00 54 1019.6
20260508030501 81 310 0.0 3.0 0.00 0.00 0.00 54 1019.5
20260508025700 82 315 3.0 4.0 0.00 0.00 0.00 53 1019.4
20260508025300 83 315 0.0 5.0 0.00 0.00 0.00 53 1019.5
20260508024900 83 315 0.0 5.0 0.00 0.00 0.00 52 1019.3
20260508024459 84 315 0.0 5.0 0.00 0.00 0.00 51 1019.5
20260508024059 84 344 0.0 6.0 0.00 0.00 0.00 50 1019.3
20260508023700 85 215 0.0 5.0 0.00 0.00 0.00 49 1019.3
20260508023300 86 315 0.0 0.0 0.00 0.00 0.00 48 1019.2
20260508022859 86 279 0.0 7.0 0.00 0.00 0.00 48 1019.2
20260508022459 87 337 3.0 8.0 0.00 0.00 0.00 46 1019.2
20260508022059 88 333 6.0 7.0 0.00 0.00 0.00 45 1019.2
20260508021659 90 295 6.0 12.0 0.00 0.00 0.00 44 1019.3
20260508021259 91 292 5.0 11.0 0.00 0.00 0.00 44 1019.3
20260508020859 92 357 1.0 9.0 0.00 0.00 0.00 44 1019.2
20260508020459 92 351 5.0 13.0 0.00 0.00 0.00 44 1019.2
20260508020058 92 251 0.0 7.0 0.00 0.00 0.00 44 1019.2
20260508015658 91 270 2.0 5.0 0.00 0.00 0.00 43 1019.1
20260508015258 91 279 2.0 7.0 0.00 0.00 0.00 43 1019.1
20260508014858 90 292 3.0 8.0 0.00 0.00 0.00 42 1019.1
20260508014458 90 297 4.0 6.0 0.00 0.00 0.00 43 1019.1
20260508014058 90 355 5.0 7.0 0.00 0.00 0.00 43 1019.1
20260508013658 89 27 5.0 8.0 0.00 0.00 0.00 44 1019.1
20260508013257 89 325 7.0 8.0 0.00 0.00 0.00 46 1019.2
20260508012858 89 310 5.0 7.0 0.00 0.00 0.00 47 1019.1
20260508012057 88 339 3.0 7.0 0.00 0.00 0.00 49 1019.2
20260508011657 87 240 7.0 8.0 0.00 0.00 0.00 49 1019.2
20260508011257 87 290 0.0 5.0 0.00 0.00 0.00 49 1019.1
20260508010857 87 253 4.0 9.0 0.00 0.00 0.00 49 1019.2
20260508010456 87 332 6.0 7.0 0.00 0.00 0.00 50 1019.1
20260508010056 86 13 3.0 4.0 0.00 0.00 0.00 50 1019.1
20260508005656 86 9 3.0 6.0 0.00 0.00 0.00 51 1019.1
20260508005256 86 263 1.0 5.0 0.00 0.00 0.00 51 1019.2
20260508004856 86 355 5.0 5.0 0.00 0.00 0.00 51 1019.2
20260508004456 86 276 2.0 7.0 0.00 0.00 0.00 51 1019.2
20260508004056 86 254 0.0 6.0 0.00 0.00 0.00 51 1019.1
20260508003655 86 310 0.0 4.0 0.00 0.00 0.00 51 1019.2
20260508002855 85 255 2.0 6.0 0.00 0.00 0.00 51 1019.2
20260508002055 85 2 0.0 6.0 0.00 0.00 0.00 52 1019.1
20260508001655 85 310 3.0 7.0 0.00 0.00 0.00 52 1019.2
20260508000854 85 301 0.0 9.0 0.00 0.00 0.00 53 1019.2
20260508000457 85 324 4.0 6.0 0.00 0.00 0.00 53 1019.3
20260508000055 85 337 4.0 7.0 0.00 0.00 0.00 52 1019.3
20260507235654 85 326 6.0 6.0 0.00 0.00 0.00 53 1019.3
20260507235254 85 342 0.0 6.0 0.00 0.00 0.00 53 1019.3
20260507234854 85 295 2.0 6.0 0.00 0.00 0.00 53 1019.3
20260507234454 84 352 6.0 7.0 0.00 0.00 0.00 53 1019.4
20260507234054 84 333 4.0 6.0 0.00 0.00 0.00 53 1019.4
20260507233253 84 13 4.0 7.0 0.00 0.00 0.00 53 1019.4
20260507232453 84 324 5.0 5.0 0.00 0.00 0.00 53 1019.5
20260507232053 83 135 1.0 6.0 0.00 0.00 0.00 53 1019.6
20260507231653 83 2 3.0 9.0 0.00 0.00 0.00 54 1019.7
20260507231253 83 289 0.0 4.0 0.00 0.00 0.00 54 1019.7
20260507230852 83 282 4.0 8.0 0.00 0.00 0.00 54 1019.8
20260507230452 83 0 2.0 8.0 0.00 0.00 0.00 55 1019.7
20260507230052 83 333 8.0 8.0 0.00 0.00 0.00 55 1019.9
20260507225653 83 339 5.0 5.0 0.00 0.00 0.00 56 1019.9
20260507225252 82 342 0.0 6.0 0.00 0.00 0.00 55 1019.9
20260507224852 82 332 4.0 8.0 0.00 0.00 0.00 56 1020.0
20260507224452 82 0 7.0 9.0 0.00 0.00 0.00 55 1020.1
20260507224051 82 346 7.0 8.0 0.00 0.00 0.00 56 1020.1
20260507223651 82 317 4.0 6.0 0.00 0.00 0.00 56 1020.2
20260507223251 82 339 3.0 8.0 0.00 0.00 0.00 57 1020.2
20260507222851 82 9 3.0 8.0 0.00 0.00 0.00 57 1020.3
20260507222051 81 303 4.0 5.0 0.00 0.00 0.00 58 1020.4
20260507221651 81 343 4.0 5.0 0.00 0.00 0.00 58 1020.4
20260507221250 81 283 0.0 4.0 0.00 0.00 0.00 58 1020.4
20260507220850 81 3 2.0 9.0 0.00 0.00 0.00 58 1020.5